Showing default

YAM-5, 55076

Orbit data source: Space-Track

YAM-5, 55076 is a payload satellite owned by Loft Orbital (US) in SSO that was launched on Tue, 03 Jan 2023 UTC via an FALCON 9 launch vehicle from the Air Force Eastern Test Range (AFETR). Payload-class satellites include a variety of spacecraft equipped with specific instruments for various scientific and technological missions. These include communications satellites like Starlink; space stations such as the ISS; scientific satellites like the Hubble; Earth observation satellites from companies like Planet Labs, Umbra, and HawkEye 360; GPS; miniature CubeSats for education and research; and military/defense satellites.

Loading next visibility...
Identifier
55076, 2023-001BV
Orbit
SSO
Country
Flag of USUS
Related business
Manufacturer
LeoStella
Mission
Operational Commercial Technology
Bus & Motor
YAM, Unknown motor
Mass
87 kg wet, 87 kg dry
Launch date (UTC)
2023-01-03 (3 years ago)
Launch vehicle
FALCON 9
Launch site
Air Force Eastern Test Range (AFETR)
Object type
Payload
Rocket body
Debris
Shape & HBR
Box, 1.0 m
Radar Cross Section
1.500 m², Medium (>0.1 m² and < 1m²)

Expand to show TLE details & history
Last TLE update: 10 hours ago

TLE from 10 hours ago
0 YAM-5
1 55076U 23001BV  26035.15933446  .00013565  00000-0  39526-3 0  9998
2 55076  97.3390  98.6069 0008400 219.4028 140.6605 15.35469784171678
Epoch: 2026-02-04T03:49Z
TLE epoch observation values (Epoch: 2026-02-04T03:49:26.497Z)
Latitude
-0.00007°
Longitude
-93.08341°
Altitude
467.084 km
Speed
7.63 km/s
True Right ascension
06h 34m 25s
True Declination
0° 00' 00"
Sunlit
Object was in full shadow at epoch
Visualization orbit readout
Latitude
Unknown
Longitude
Unknown
Altitude
Unknown
Speed
Unknown
Apparent Right ascension
Unknown
Apparent Declination
Unknown
Sunlit
N/A
Visualization observer readout
Local Sidereal Time
15:53:13
Azimuth
Unknown
Elevation
Unknown
Doppler factor
Unknown
Orbital elements
Apogee altitude
462.209 km
Perigee altitude
450.727 km
Semi-major axis
6,834.605 km
Eccentricity
0.00084
Inclination
97.339°
RAAN
98.6069°
Arg. of periapsis
219.4028°
True anomaly
140.72147°
Mean anomaly
140.6605°
Eccentric anomaly
140.69099°
Mean motion
3.84125 °/min
Orbital period
93.72 mins
BSTAR
0.00039526
Loading maneuver chart data...
Computing Atmospheric mass density...
Loading historical data...
Loading historical data...
Loading historical data...
Loading historical data...
Loading historical data...
Loading historical data...
Loading historical data...

Documentation

Showing up to 5 results
|